N4MRV-1 Weather Reports


Display with metric or nautical units.
time (UTC)temp
F
wind
direction
speed
MPH
gust
MPH
rain 1hr
in
rain 24hr
in
rain mn
in
humidity
%
barometer
mb
20260510141535 71 0 1.0 4.0 0.00 0.00 0.00 55 1014.6
20260510140017 69 0.0 3.0 0.00 0.00 0.00 60 1014.6
20260510134557 68 315 1.0 3.0 0.00 0.00 0.00 64 1014.5
20260510133017 66 315 1.0 3.0 0.00 0.00 0.00 67 1014.5
20260510131537 64 0.0 4.0 0.00 0.00 0.00 73 1014.7
20260510130017 62 0.0 3.0 0.00 0.00 0.00 79 1014.6
20260510124517 59 0 1.0 3.0 0.00 0.00 0.00 88 1014.3
20260510123017 58 0.0 2.0 0.00 0.00 0.00 95 1014.3
20260510121517 57 0.0 2.0 0.00 0.00 0.00 95 1014.0
20260510120017 56 0.0 0.0 0.00 0.00 0.00 95 1013.7
20260510114517 55 0.0 1.0 0.00 0.00 0.00 94 1013.6
20260510113037 54 0.0 1.0 0.00 0.00 0.00 93 1013.4
20260510111517 54 0.0 0.0 0.00 0.00 0.00 93 1013.3
20260510110017 53 0.0 0.0 0.00 0.00 0.00 92 1013.2
20260510104516 53 0.0 1.0 0.00 0.00 0.00 91 1013.0
20260510103017 54 0.0 0.0 0.00 0.00 0.00 91 1012.8
20260510101517 54 0.0 1.0 0.00 0.00 0.00 91 1012.5
20260510100037 55 0.0 0.0 0.00 0.00 0.00 91 1012.4
20260510094516 55 0.0 0.0 0.00 0.00 0.00 90 1012.3
20260510093056 55 0.0 0.0 0.00 0.00 0.00 90 1012.2
20260510091517 56 0.0 0.0 0.00 0.00 0.00 89 1012.1
20260510090016 56 0.0 0.0 0.00 0.00 0.00 89 1011.9
20260510084516 57 0.0 1.0 0.00 0.00 0.00 89 1011.8
20260510083016 58 0.0 0.0 0.00 0.00 0.00 88 1011.7
20260510081516 58 0.0 0.0 0.00 0.00 0.00 87 1011.7
20260510080016 59 0.0 0.0 0.00 0.00 0.00 86 1011.5
20260510074516 59 0.0 0.0 0.00 0.00 0.00 86 1011.5
20260510073016 60 0.0 0.0 0.00 0.00 0.00 85 1011.4
20260510071556 61 0.0 0.0 0.00 0.00 0.00 85 1011.5
20260510070016 61 0.0 0.0 0.00 0.00 0.00 85 1011.5
20260510064516 62 0.0 1.0 0.00 0.00 0.00 84 1011.4
20260510063016 62 0.0 1.0 0.00 0.00 0.00 84 1011.3
20260510061536 62 0.0 1.0 0.00 0.00 0.00 84 1011.3
20260510060016 62 0.0 1.0 0.00 0.00 0.00 84 1011.3
20260510054516 62 0.0 2.0 0.00 0.00 0.00 84 1011.3
20260510053016 62 0.0 1.0 0.00 0.00 0.00 84 1011.3
20260510051516 62 0.0 1.0 0.00 0.00 0.00 84 1011.3
20260510050016 61 0.0 1.0 0.00 0.00 0.00 85 1011.3
20260510044536 61 0.0 0.0 0.00 0.00 0.00 85 1011.3
20260510043016 61 0.0 0.0 0.00 0.00 0.00 83 1011.4
20260510041516 61 0.0 0.0 0.00 0.00 0.00 83 1011.3
20260510040016 61 0.0 0.0 0.00 0.00 0.00 83 1011.3
20260510034517 61 0.0 0.0 0.00 0.00 0.00 82 1011.2
20260510033016 61 0.0 0.0 0.00 0.00 0.00 81 1011.2
20260510031516 61 0.0 0.0 0.00 0.00 0.00 79 1011.0
20260510030016 61 0.0 0.0 0.00 0.00 0.00 77 1010.9
20260510024516 61 0.0 0.0 0.00 0.00 0.00 76 1010.8
20260510023016 62 0.0 0.0 0.00 0.00 0.00 74 1010.7
20260510021516 63 0.0 0.0 0.00 0.00 0.00 74 1010.5
20260510020036 63 0.0 0.0 0.00 0.00 0.00 72 1010.2
20260510014536 64 0.0 0.0 0.00 0.00 0.00 72 1010.0
20260510013016 65 0.0 0.0 0.00 0.00 0.00 70 1009.9
20260510011536 66 0.0 0.0 0.00 0.00 0.00 68 1009.7
20260510010036 67 0.0 0.0 0.00 0.00 0.00 66 1009.7
20260510004516 68 0.0 0.0 0.00 0.00 0.00 63 1009.4
20260510003016 69 0.0 0.0 0.00 0.00 0.00 61 1009.2
20260510001516 70 0.0 1.0 0.00 0.00 0.00 59 1009.2
20260510000016 72 0.0 1.0 0.00 0.00 0.00 56 1008.9
20260509234516 73 0.0 1.0 0.00 0.00 0.00 54 1008.9
20260509233016 74 0.0 1.0 0.00 0.00 0.00 52 1008.9
20260509231516 75 0.0 2.0 0.00 0.00 0.00 52 1009.0
20260509230016 76 0.0 2.0 0.00 0.00 0.00 51 1008.9
20260509224516 76 248 1.0 2.0 0.00 0.00 0.00 51 1008.8
20260509223016 77 180 1.0 4.0 0.00 0.00 0.00 51 1008.8
20260509221556 76 158 1.0 7.0 0.00 0.00 0.00 55 1008.9
20260509220016 75 180 1.0 4.0 0.00 0.00 0.00 53 1008.8
20260509214516 75 0.0 2.0 0.00 0.00 0.00 54 1008.7
20260509213036 75 158 1.0 4.0 0.00 0.00 0.00 51 1008.7
20260509211516 76 203 1.0 4.0 0.00 0.00 0.00 51 1008.7
20260509210016 76 0 1.0 2.0 0.00 0.00 0.00 50 1008.6
20260509204516 76 315 1.0 3.0 0.00 0.00 0.00 48 1008.5
20260509203016 76 248 1.0 5.0 0.00 0.00 0.00 49 1008.3
20260509201516 76 293 1.0 7.0 0.00 0.00 0.00 49 1008.5
20260509200016 76 225 2.0 9.0 0.00 0.00 0.00 49 1008.7
20260509194516 76 315 1.0 5.0 0.00 0.00 0.00 47 1008.8
20260509193016 76 225 1.0 7.0 0.00 0.00 0.00 47 1008.9
20260509191516 75 315 1.0 4.0 0.00 0.00 0.00 50 1009.3
20260509190016 75 293 1.0 4.0 0.00 0.00 0.00 53 1009.6
20260509184516 75 225 1.0 8.0 0.00 0.00 0.00 51 1009.8
20260509183015 75 248 2.0 5.0 0.00 0.00 0.00 51 1010.0
20260509181516 75 180 2.0 6.0 0.00 0.00 0.00 49 1010.2
20260509180015 75 180 2.0 6.0 0.00 0.00 0.00 51 1010.2
20260509174515 74 158 2.0 6.0 0.00 0.00 0.00 54 1010.2
20260509173016 74 135 1.0 5.0 0.00 0.00 0.00 53 1010.4
20260509171515 74 225 2.0 5.0 0.00 0.00 0.00 52 1010.6
20260509170015 74 270 2.0 5.0 0.00 0.00 0.00 53 1010.9
20260509164535 74 203 2.0 6.0 0.00 0.00 0.00 53 1011.1
20260509163035 75 225 2.0 7.0 0.00 0.00 0.00 51 1011.0
20260509161515 74 293 2.0 6.0 0.00 0.00 0.00 49 1011.2
20260509160017 73 225 2.0 7.0 0.00 0.00 0.00 50 1011.2
20260509154517 73 248 2.0 7.0 0.00 0.00 0.00 50 1011.6
20260509153017 72 248 2.0 9.0 0.00 0.00 0.00 54 1011.7
20260509151517 71 315 1.0 4.0 0.00 0.00 0.00 56 1011.9
20260509150017 69 248 1.0 9.0 0.00 0.00 0.00 63 1011.9
20260509144517 67 180 1.0 4.0 0.00 0.00 0.00 67 1012.3
20260509143017 66 90 1.0 4.0 0.00 0.00 0.00 71 1012.7